Location: Unspecified
(34.4950°S, 58.5160°W)
Time: 04:46:57
(UTC+00:00)

ACS3 Solar Sail - Pass Details

Date: 23 February 2026
Orbit: 885 x 974 km, 97.2° (Epoch: 11 March)

Event Time Altitude Azimuth Distance (km) Brightness Sun altitude
Exits shadow 05:02:46 21° 180° (S) 2,035 3.9 -43.8°
Drops below altitude 10° 05:04:36 10° 184° (S) 2,713 4.6 -43.7°
Sets 05:07:07 0° 187° (S) 3,678 5.5 -43.5°
